Orbital Elements at Epoch 2459200.5 (2020-Dec-17.0) TDB
Reference: JPL 19 (heliocentric ecliptic J2000)
Element | Value | Uncertainty (1-sigma) | Units |
e | .2282649570431736 | 7.3708e-08 | |
a | 2.54819752355935 | 1.0623e-08 | au |
q | 1.966533325306554 | 1.937e-07 | au |
i | 2.296367421412036 | 3.2405e-06 | deg |
node | 309.4146215652343 | 0.00012142 | deg |
peri | 72.68646944088485 | 0.00012166 | deg |
M | 5.774043839407559 | 6.9151e-06 | deg |
tp | 2459176.669912500033 (2020-Nov-23.16991250) | 2.8478e-05 | TDB |
period | 1485.757943408385 4.07 | 9.2911e-06 2.544e-08 | d yr |
n | .2423005723086672 | 1.5152e-09 | deg/d |
Q | 3.129861721812147 | 1.3048e-08 | au |
|
| | Orbit Determination Parameters
Additional Information
|